Regional Weather Roundup
Issued by NWS

Home | Current Version | Previous Version | Graphics & Text | Print | Product List | Glossary On
Versions: 1 2 3 4 5 6 7 8 9 10 11 12 13 14 15 16 17 18 19 20 21 22 23 24 25 26 27 28 29 30 31 32 33 34 35 36 37 38 39 40 41 42 43 44 45 46 47 48 49 50
000
ASUS43 KMPX 240910
RWRMN
WEATHER ROUNDUP FOR MINNESOTA
NATIONAL WEATHER SERVICE TWIN CITIES/CHANHASSEN MN
300 AM CST TUE JAN 24 2017


NOTE: "FAIR" INDICATES FEW OR NO CLOUDS BELOW 12,000 FEET WITH NO
SIGNIFICANT WEATHER AND/OR OBSTRUCTIONS TO VISIBILITY. N/A MEANS
CURRENT SKY AND/OR WEATHER CONDITIONS ARE NOT AVAILABLE.

MNZ060>063-068>070-241000-
   Twin Cities Metro

CITY           SKY/WX    TMP DP  RH WIND       PRES   REMARKS
TWIN CITIES    CLOUDY    32  27  81 N5        29.88R WCI  27
ST PAUL        CLOUDY    32  29  88 NW9       29.89R WCI  24
CRYSTAL        CLOUDY    32  25  75 NW8       29.87R WCI  25
BLAINE         CLOUDY    34  30  86 N5        29.87S WCI  30
LAKEVILLE      CLOUDY    30  28  93 CALM      29.87S
EDEN PRAIRIE   CLOUDY    32  26  78 N3        29.86S
SOUTH ST PAUL  CLOUDY    33  30  89 W5        29.88R WCI  28
LAKE ELMO      CLOUDY    32  32 100 CALM      29.88R FOG
$$
MNZ001>005-007-008-013>017-022>024-027-028-241000-
   Northwest Minnesota

CITY           SKY/WX    TMP DP  RH WIND       PRES   REMARKS
BEMIDJI        CLOUDY    27  23  84 W6        29.84S WCI  21
HALLOCK        CLOUDY    27  25  93 SW9       29.82S WCI  17
ROSEAU         CLOUDY    27  21  80 SW8       29.82S WCI  18
WARROAD        CLOUDY    25  21  86 SW7       29.83R WCI  17
THIEF RVR FALL CLOUDY    24  20  84 W10       29.85R WCI  14
CROOKSTON      CLOUDY    25  21  86 NW10      29.87S WCI  15
FOSSTON        CLOUDY    27  23  86 W9        29.84S WCI  17
DETROIT LAKES  CLOUDY    30  27  86 CALM      29.85S
MOORHEAD       CLOUDY    30  25  80 CALM      29.87S
PARK RAPIDS    CLOUDY    29  21  72 NW8       29.83S WCI  21
MAHNOMEN       CLOUDY    28  24  84 SW8       29.85R WCI  20
$$
MNZ006-009>011-018-025>026-241000-
   North Central Minnesota

CITY           SKY/WX    TMP DP  RH WIND       PRES   REMARKS
BAUDETTE       CLOUDY    27  21  78 W8        29.82R WCI  19
FLAG ISLAND    CLOUDY    27  21  80 SW8       29.80S WCI  18
INTL FALLS     CLOUDY    29  24  82 SW5       29.83R WCI  24
WASKISH        CLOUDY    28  25  86 W12       29.84R WCI  18
BIG FORK       CLOUDY    30  25  80 SW3       29.84R
LONGVILLE      CLOUDY    30  25  80 CALM      29.84S
GRAND RAPIDS   CLOUDY    30  26  85 W3        29.86R
CRANE LAKE     CLOUDY    28  28 100 CALM      29.86R
ORR            CLOUDY    28  25  86 CALM      29.81S
COOK           CLOUDY    30  28  93 CALM      29.84R
WALKER         CLOUDY    28  23  82 W3        29.84S
$$
MNZ012-019>021-037-241000-
   Northeast Minnesota

CITY           SKY/WX    TMP DP  RH WIND       PRES   REMARKS
DULUTH         CLOUDY    31  29  92 NW7       29.82R WCI  24
ELY            CLOUDY    30  28  93 CALM      29.82R
HIBBING        CLOUDY    29  27  92 SW3       29.83R
EVELETH        CLOUDY    32  28  83 W3        29.85R
DULUTH HARBOR  CLOUDY    34  32  93 W5        29.87R WCI  30
TWO HARBORS    CLOUDY    36  30  80 NW3       29.82S
SILVER BAY     CLOUDY    34  34 100 CALM      29.81R
GRAND MARAIS     N/A     36  34  92 CALM      29.82R
G MARAIS ARPRT CLOUDY    30  28  93 CALM      29.78S
$$
MNZ029>031-032-039>041-046>048-054>057-064-241000-
   West Central Minnesota

CITY           SKY/WX    TMP DP  RH WIND       PRES   REMARKS
FERGUS FALLS   CLOUDY    30  27  86 CALM      29.89F
WHEATON        CLOUDY    30  28  93 CALM      29.89R
MORRIS         CLOUDY    30  27  86 CALM      29.86R
ALEXANDRIA     CLOUDY    30  23  75 N5        29.85S WCI  25
ELBOW LAKE     CLOUDY    30  28  94 CALM      29.85F FOG
WADENA         CLOUDY    28  25  86 NW3       29.84S
GLENWOOD       CLOUDY    30  25  80 CALM      29.86R
APPLETON       CLOUDY    32  28  86 CALM      29.87R
ORTONVILLE     CLOUDY    30  27  86 CALM      29.86R
MADISON        CLOUDY    34  30  86 CALM      29.86S
WILLMAR        CLOUDY    30  28  93 CALM      29.88R
$$
MNZ033>034-036-042>043-049>051-058-059-241000-
   Central Minnesota

CITY           SKY/WX    TMP DP  RH WIND       PRES   REMARKS
ST CLOUD       CLOUDY    31  26  82 CALM      29.87R
SAUK CENTRE    CLOUDY    30  25  84 N5        29.86S WCI  25
PAYNESVILLE    CLOUDY    30  29  98 CALM      29.87S
AITKIN         CLOUDY    34  25  69 CALM      29.84S
PINE RIVER     CLOUDY    30  25  80 CALM      29.88S
BRAINERD       CLOUDY    30  25  81 W6        29.85S WCI  24
STAPLES        CLOUDY    28  25  86 W5        29.85S WCI  23
LONG PRAIRIE   CLOUDY    30  25  80 CALM      29.86R
LITTLE FALLS     N/A    N/A N/A N/A CALM        N/A
LITCHFIELD     CLOUDY    32  28  86 CALM      29.87S
BUFFALO        CLOUDY    31  26  79 W3        29.88S
MAPLE LAKE     CLOUDY    32  29  88 CALM      29.88S
HUTCHINSON     CLOUDY    32  29  88 CALM      29.88R
$$
MNZ037-044-045-052-053-241000-
   East Central Minnesota

CITY           SKY/WX    TMP DP  RH WIND       PRES   REMARKS
PRINCETON      CLOUDY    32  27  80 CALM      29.88R
MORA           CLOUDY    32  27  80 CALM      29.88R
CAMBRIDGE      CLOUDY    34  27  75 W3        29.86R
RUSH CITY      CLOUDY    32  28  86 CALM      29.87R
MOOSE LAKE     CLOUDY    32  30  93 W3        29.84S
HINCKLEY       CLOUDY    32  32 100 CALM      29.86S
CLOQUET        CLOUDY    30  28  93 CALM      29.84S
MCGREGOR       CLOUDY    32  28  86 W3        29.86R
$$
MNZ071>073-080-081-089-090-097-098-241000-
   Southwest Minnesota

CITY           SKY/WX    TMP DP  RH WIND       PRES   REMARKS
MONTEVIDEO     CLOUDY    30  30 100 CALM      29.89R
GRANITE FALLS  CLOUDY    33  29  88 CALM      29.88R
CANBY          CLOUDY    32  30  93 CALM      29.86S
MARSHALL       CLOUDY    31  28  89 E5        29.84F WCI  26
REDWOOD FALLS  CLOUDY    32  27  81 CALM      29.86R
OLIVIA         CLOUDY    32  28  86 CALM      29.86S
PIPESTONE      CLOUDY    30  30 100 SE3       29.79S
WINDOM         CLOUDY    30  28  93 CALM      29.83S
JACKSON        CLOUDY    30  28  93 E5        29.83S WCI  25
TRACY          CLOUDY    32  29  90 SE5       29.84R WCI  27
SLAYTON        CLOUDY    30  28  95 SE7       29.81S WCI  23
$$
MNZ065>067-074>077-082>085-091>093-241000-
   South Central Minnesota

CITY           SKY/WX    TMP DP  RH WIND       PRES   REMARKS
MANKATO        CLOUDY    31  28  89 N5        29.86S WCI  26
NEW ULM        CLOUDY    30  27  86 CALM      29.86S
ST JAMES       CLOUDY    30  28  93 CALM      29.87R
FAIRMONT       CLOUDY    31  29  92 N3        29.86R
GLENCOE        CLOUDY    32  30  92 CALM      29.86S
OWATONNA       CLOUDY    30  27  86 CALM      29.86S
WASECA         CLOUDY    32  30  93 CALM      29.87S
ALBERT LEA     CLOUDY    30  28  93 CALM      29.85S
$$
MNZ078>079-086>088-094>096-241000-
   Southeast Minnesota

CITY           SKY/WX    TMP DP  RH WIND       PRES   REMARKS
ROCHESTER      CLOUDY    30  28  92 W6        29.85R WCI  24
RED WING       CLOUDY    34  28  80 CALM      29.87S
STANTON        CLOUDY    33  29  87 W3        29.86R
DODGE CENTER   CLOUDY    30  28  93 MISG      29.85S
WINONA         CLOUDY    34  32  93 CALM      29.88S
AUSTIN         CLOUDY    30  27  86 NW5       29.85S WCI  25
PRESTON        CLOUDY    30  26  83 W5        29.85S WCI  25
$$
ABBREVIATIONS USED IN REMARKS
   TC - TEMPERATURES IN CELSIUS
  WCI - WIND CHILL INDEX
   HX - HEAT INDEX
  VSB - VISIBILITY
$$




USA.gov is the U.S. government's official web portal to all federal, state and local government web resources and services.